Temp
66 65 61 67 69 71 68 64 64 70 76 72 70 71 71 73 74 72 73 75 74 75 79 79 80 81 79 77 75 75 76 74 73 72 71 71 71 73 73 74 74 75 75 75
64 58 69 72 72 70 65 62 62 71 75 72 69 71 73 71 73 74 73 73 75 75 75 76 77 79 77 77 76 75 76 73 75 76 73 73 72 73 73 72 72 73 72 74
59 65 73 72 68 68 60 59 62 67 71 71 69 66 67 70 70 72 75 77 77 78 75 74 76 78 77 76 75 75 75 74 75 73 73 73 73 72 71 71 72 72 73 75
62 69 72 65 66 67 54 70 70 69 63 56 68 54 61 63 64 67 71 73 75 77 78 77 77 78 78 78 78 77 75 74 75 73 74 72 72 70 71 72 72 73 74 75
64 65 65 64 69 71 67 71 68 67 59 56 60 56 61 60 66 65 68 74 76 79 79 77 78 79 80 81 78 77 75 74 74 74 74 73 72 72 73 73 72 73 74 75
65 69 70 71 72 72 71 65 60 55 54 48 54 56 57 61 64 67 67 71 75 76 77 79 80 81 80 80 77 76 73 73 73 74 72 72 72 72 71 72 71 72 71 71
63 64 67 71 64 65 63 56 48 47 48 49 45 54 60 66 70 69 69 71 73 74 74 73 76 77 77 76 76 74 72 72 72 73 73 72 72 72 72 71 72 72 70 69
54 56 66 71 70 64 57 58 49 43 43 50 45 51 62 68 70 71 73 72 74 74 76 75 77 79 78 78 76 75 71 72 72 72 72 72 73 73 73 72 71 72 71 70
51 56 68 68 67 70 56 54 55 47 39 45 50 58 66 67 68 71 71 73 73 73 72 74 75 79 77 77 76 77 72 73 73 74 71 72 72 73 73 72 71 73 70 70
58 53 61 67 68 66 63 64 55 48 43 40 48 50 55 62 65 68 69 71 72 73 72 74 74 78 80 80 79 78 75 72 75 73 72 74 73 73 71 70 70 70 69 70
58 56 60 62 59 61 60 54 50 50 47 45 44 52 61 65 67 68 70 72 71 73 73 75 75 77 77 80 79 78 77 74 74 76 73 73 73 71 69 69 70 70 70 70
59 54 52 59 63 63 59 58 55 51 47 41 46 54 65 66 68 70 71 71 72 74 74 75 75 74 77 77 77 77 77 78 77 78 76 74 72 71 71 70 71 70 70 70
64 54 50 58 61 61 57 55 50 49 47 45 49 54 67 65 68 70 69 70 70 71 72 74 73 72 73 73 74 75 76 76 76 76 74 74 71 72 72 71 71 71 70 69
65 51 55 53 56 58 58 59 56 54 51 48 50 56 63 63 64 68 70 70 69 72 73 73 72 71 71 72 72 71 73 75 77 74 73 72 72 73 71 70 70 69 69 67
64 57 52 55 61 62 61 62 62 56 54 54 55 56 60 61 62 66 69 71 72 72 71 73 73 72 70 71 71 72 74 75 76 69 70 73 72 71 68 70 69 68 68 68
59 55 52 56 63 64 63 64 63 62 60 59 58 57 63 65 67 67 68 71 71 72 73 73 74 73 71 71 71 73 73 74 75 75 72 72 71 69 69 70 68 68 67 67
58 56 52 49 57 59 57 59 60 59 60 60 57 60 65 66 68 68 68 70 70 72 73 72 72 70 71 71 72 72 73 74 75 74 74 72 70 69 70 70 68 67 66 66
57 52 49 51 51 46 59 62 66 62 62 62 62 65 66 66 68 69 71 70 70 71 71 72 72 73 72 73 72 73 74 74 74 73 72 72 71 70 70 69 67 67 67 66
59 54 50 51 47 54 62 63 63 61 62 64 62 65 68 69 70 69 72 73 72 71 70 71 75 74 73 73 73 72 73 73 73 73 72 71 71 70 69 68 67 67 65 63
56 55 57 47 48 48 59 67 70 66 56 65 64 65 65 67 60 61 69 71 72 72 72 72 74 75 73 73 73 72 72 72 72 72 72 72 71 69 68 68 68 67 65 62
52 51 52 48 49 55 62 68 68 56 58 65 65 65 64 63 64 67 68 71 72 72 72 74 75 74 75 74 73 71 72 72 74 73 72 71 70 68 68 68 66 64 62 60
54 51 50 48 47 49 66 67 62 63 61 65 64 65 64 66 66 67 69 69 70 71 72 73 72 74 76 74 73 72 71 73 73 72 70 68 67 67 67 65 64 63 60 58
53 55 53 55 54 59 61 62 63 63 65 64 65 67 66 66 68 68 67 68 69 70 71 72 72 73 73 73 73 72 72 72 71 68 67 67 67 66 65 64 62 61 61 59
55 56 54 57 59 60 63 65 65 66 66 67 67 68 69 67 68 67 67 68 68 68 70 72 71 70 71 72 72 72 72 71 69 68 67 66 66 64 64 64 63 63 61 59
58 57 55 55 59 62 66 65 67 68 68 69 70 70 70 69 69 67 67 67 67 67 69 69 69 69 69 69 70 71 71 70 68 68 67 66 66 65 63 63 62 64 63 62
58 58 56 56 61 60 62 66 68 67 68 70 69 69 70 70 67 68 66 65 66 66 67 67 67 68 68 69 69 69 70 70 68 67 66 65 65 63 60 59 57 52 54 52
MSLP
1005.44 1006.18 1006.31 1006.50 1006.58 1006.57 1006.87 1007.19 1006.93 1005.91 1005.58 1005.79 1006.17 1006.38 1006.36 1006.65 1007.46 1008.02 1008.31 1009.00 1009.15 1009.41 1009.63 1009.97 1010.16 1010.45 1011.00 1011.52 1012.16 1012.53 1013.06 1013.44 1014.13 1014.72 1015.20 1015.39 1015.50 1015.65 1015.90 1015.72 1015.81 1016.12 1016.41 1016.55
1006.17 1006.33 1006.12 1006.13 1006.42 1006.61 1006.94 1007.12 1007.06 1006.10 1005.65 1005.94 1006.47 1006.47 1006.34 1006.61 1006.59 1006.82 1007.43 1008.18 1008.47 1008.75 1009.10 1009.33 1009.57 1010.05 1010.44 1010.87 1011.44 1012.09 1012.41 1012.98 1013.42 1013.95 1014.44 1014.88 1015.23 1015.45 1015.65 1015.71 1015.83 1015.99 1016.25 1016.43
1006.29 1005.94 1005.72 1005.97 1006.38 1006.63 1007.11 1007.29 1007.32 1007.21 1006.40 1006.04 1006.52 1006.60 1006.47 1006.54 1006.49 1006.73 1007.09 1007.23 1007.54 1007.72 1008.24 1008.66 1009.09 1009.38 1009.96 1010.58 1010.92 1011.44 1011.79 1012.32 1012.94 1013.35 1014.09 1014.86 1015.25 1015.52 1015.64 1015.86 1015.86 1015.96 1016.20 1016.29
1006.08 1005.52 1005.55 1005.78 1005.96 1006.39 1006.95 1006.63 1007.09 1007.62 1007.84 1007.72 1007.35 1007.80 1006.80 1006.66 1006.53 1006.45 1006.65 1006.63 1006.39 1006.82 1007.41 1008.17 1008.53 1008.99 1009.26 1009.52 1010.29 1010.82 1011.53 1011.95 1012.52 1013.15 1013.80 1014.40 1014.73 1015.12 1015.11 1015.31 1015.70 1015.81 1015.93 1016.20
1005.73 1005.40 1005.41 1005.57 1005.70 1006.01 1006.69 1006.84 1007.51 1007.93 1008.49 1008.85 1008.69 1008.95 1007.19 1006.92 1006.19 1005.31 1005.65 1005.22 1005.32 1005.81 1006.47 1007.08 1007.76 1008.05 1008.29 1009.00 1009.74 1010.28 1011.02 1011.75 1012.18 1012.78 1013.26 1013.99 1014.43 1014.63 1014.85 1015.21 1015.61 1015.90 1015.96 1016.16
1005.52 1005.15 1004.94 1004.79 1005.02 1005.51 1006.21 1007.53 1008.33 1009.04 1009.75 1010.48 1009.21 1009.42 1007.32 1006.99 1006.03 1005.20 1004.97 1004.79 1004.92 1005.51 1005.87 1006.51 1007.08 1007.66 1008.09 1008.70 1009.35 1010.07 1010.68 1011.32 1011.96 1012.39 1012.97 1013.56 1014.09 1014.44 1014.98 1015.39 1015.76 1015.88 1016.26 1016.56
1005.52 1004.98 1004.39 1004.30 1005.05 1005.81 1006.70 1008.19 1009.73 1011.06 1011.50 1010.94 1009.83 1009.59 1007.17 1005.85 1005.24 1004.64 1004.55 1004.28 1004.70 1005.24 1005.58 1006.08 1006.60 1007.15 1007.67 1008.28 1008.80 1009.62 1010.37 1011.03 1011.70 1012.04 1012.63 1013.14 1013.63 1014.26 1014.66 1015.07 1015.54 1015.94 1016.60 1016.74
1006.10 1005.16 1004.30 1004.03 1004.48 1005.40 1006.85 1008.13 1009.80 1011.37 1012.34 1011.20 1010.34 1009.06 1006.44 1005.54 1004.72 1004.22 1003.84 1004.18 1004.59 1004.92 1004.96 1005.28 1005.59 1006.11 1006.80 1007.71 1008.49 1009.16 1009.97 1010.40 1010.87 1011.60 1012.35 1012.78 1013.19 1013.75 1014.35 1014.93 1015.55 1015.78 1015.96 1016.28
1006.18 1005.22 1003.99 1003.75 1003.99 1004.67 1007.00 1008.25 1009.07 1010.87 1012.29 1011.89 1010.29 1008.38 1006.03 1005.36 1004.95 1004.48 1004.28 1004.53 1004.40 1004.38 1004.94 1005.26 1005.83 1006.09 1006.54 1007.23 1007.66 1008.25 1009.06 1010.01 1010.44 1010.95 1011.64 1012.59 1013.16 1013.40 1013.74 1014.54 1015.09 1015.71 1016.51 1016.37
1005.80 1005.59 1004.42 1004.06 1004.28 1005.16 1005.74 1007.34 1009.16 1010.81 1012.17 1012.20 1010.61 1009.05 1007.34 1005.60 1005.04 1004.71 1004.40 1004.39 1004.20 1004.53 1004.91 1005.16 1005.46 1005.70 1006.08 1006.38 1006.81 1007.70 1008.43 1008.85 1009.48 1010.53 1010.95 1011.85 1012.68 1013.41 1013.67 1014.25 1014.83 1015.17 1016.10 1016.77
1005.49 1005.82 1005.23 1004.62 1004.47 1005.17 1006.34 1007.32 1009.15 1010.58 1011.52 1011.79 1010.96 1008.95 1006.11 1005.41 1004.78 1004.51 1004.03 1004.07 1004.21 1004.51 1004.78 1004.87 1005.10 1005.23 1005.58 1005.92 1006.56 1007.11 1007.75 1008.38 1008.94 1009.81 1010.63 1011.80 1012.24 1013.31 1013.31 1013.60 1013.75 1014.29 1015.09 1016.04
1005.30 1006.11 1005.97 1005.06 1004.64 1004.92 1005.42 1006.52 1008.03 1010.23 1011.67 1011.73 1010.66 1008.09 1006.27 1005.73 1005.47 1004.84 1004.19 1004.51 1004.19 1004.60 1004.66 1004.81 1004.96 1005.11 1005.50 1005.91 1006.34 1006.75 1007.26 1007.55 1008.84 1010.75 1011.71 1011.88 1012.77 1012.59 1012.69 1012.92 1013.50 1014.21 1015.34 1015.71
1004.94 1005.97 1006.39 1005.65 1005.33 1005.20 1005.51 1006.40 1007.62 1008.79 1009.96 1010.92 1010.46 1008.01 1006.19 1005.78 1005.08 1004.82 1004.78 1004.63 1004.62 1004.72 1004.79 1004.87 1004.94 1005.17 1005.30 1005.64 1005.98 1006.37 1006.99 1008.00 1009.39 1010.68 1010.92 1012.04 1012.29 1012.48 1011.94 1012.58 1013.65 1014.54 1014.33 1015.35
1004.50 1006.50 1006.54 1006.39 1005.90 1005.70 1005.84 1006.43 1007.31 1008.03 1009.41 1010.20 1009.55 1008.30 1006.98 1006.43 1006.07 1005.37 1004.41 1003.99 1004.74 1004.81 1004.73 1004.60 1004.78 1005.18 1005.12 1005.03 1005.36 1006.50 1007.22 1007.61 1009.04 1010.11 1011.11 1012.30 1012.27 1011.65 1011.90 1012.46 1013.69 1014.35 1014.42 1015.43
1004.89 1006.59 1006.63 1006.30 1006.01 1005.87 1005.85 1006.11 1006.68 1007.43 1008.10 1008.56 1008.38 1008.15 1007.56 1007.41 1006.83 1006.17 1005.58 1004.91 1004.46 1004.72 1005.19 1004.89 1004.92 1004.93 1005.21 1005.32 1005.20 1005.98 1006.37 1007.00 1007.65 1008.28 1008.92 1011.68 1012.51 1011.86 1012.10 1012.24 1013.32 1014.18 1014.69 1015.51
1005.58 1007.14 1007.12 1007.03 1006.40 1006.13 1006.16 1006.34 1006.60 1007.22 1007.81 1007.92 1008.02 1007.72 1007.48 1007.15 1006.87 1006.67 1006.14 1005.43 1005.30 1004.90 1004.59 1004.87 1004.89 1005.08 1004.74 1004.59 1004.88 1005.42 1005.89 1006.66 1007.54 1008.40 1009.51 1010.42 1011.68 1011.85 1011.43 1011.73 1012.94 1014.20 1014.99 1015.60
1006.35 1007.24 1008.36 1008.14 1007.33 1006.85 1006.94 1006.76 1006.92 1007.21 1007.44 1007.75 1007.98 1007.76 1007.61 1007.29 1006.87 1006.73 1006.31 1005.92 1005.77 1005.56 1005.25 1004.62 1004.67 1004.78 1004.73 1004.97 1005.18 1005.28 1005.40 1005.65 1007.22 1009.04 1009.23 1009.24 1010.52 1011.03 1011.10 1011.54 1012.68 1013.88 1014.90 1015.40
1006.65 1007.85 1008.54 1008.96 1008.07 1007.91 1006.99 1006.67 1006.66 1006.95 1007.24 1007.58 1007.88 1007.62 1007.47 1007.24 1006.92 1006.69 1006.42 1006.03 1005.75 1005.32 1005.01 1004.71 1004.46 1004.27 1004.34 1004.91 1004.84 1005.08 1005.70 1005.97 1006.24 1006.44 1008.82 1009.27 1009.64 1009.88 1010.52 1011.45 1012.52 1013.63 1014.46 1015.09
1006.73 1007.86 1009.25 1009.49 1009.01 1008.42 1007.05 1006.77 1006.71 1006.89 1007.25 1007.33 1007.85 1007.95 1007.59 1007.00 1006.90 1006.81 1006.42 1006.21 1005.96 1005.80 1005.26 1004.66 1004.20 1004.32 1004.76 1004.74 1005.23 1005.22 1005.63 1005.81 1006.05 1006.56 1007.03 1007.59 1008.28 1009.23 1010.36 1011.24 1012.04 1012.96 1014.10 1015.24
1007.41 1007.77 1008.68 1009.85 1009.33 1008.35 1006.39 1005.83 1006.03 1006.50 1006.97 1006.59 1007.27 1007.48 1007.69 1007.41 1007.56 1007.24 1006.77 1006.49 1006.21 1005.55 1004.84 1003.64 1003.36 1003.45 1003.86 1004.90 1004.85 1005.20 1005.29 1005.50 1005.76 1005.67 1005.95 1007.02 1007.69 1008.53 1009.55 1010.28 1011.19 1012.37 1013.49 1014.44
1008.36 1009.00 1009.33 1009.46 1008.86 1007.49 1006.08 1005.92 1006.15 1006.71 1006.82 1006.27 1006.75 1007.18 1007.34 1007.75 1007.67 1007.24 1006.93 1006.33 1006.00 1005.51 1004.94 1004.19 1003.35 1002.79 1003.24 1004.73 1004.93 1004.74 1004.94 1005.27 1005.36 1006.11 1006.65 1007.27 1007.40 1007.84 1008.83 1010.05 1011.32 1012.43 1013.69 1014.80
1008.74 1009.16 1009.60 1009.63 1008.67 1007.31 1005.85 1006.18 1006.32 1006.10 1006.16 1006.45 1007.05 1007.17 1007.34 1007.36 1007.45 1007.33 1006.92 1006.61 1006.18 1005.86 1005.21 1004.72 1004.30 1003.76 1003.62 1004.98 1005.27 1005.03 1004.58 1005.03 1005.75 1006.53 1006.92 1007.50 1007.82 1008.29 1009.42 1010.53 1011.76 1012.67 1013.56 1014.85
1008.97 1008.77 1008.77 1008.73 1007.74 1006.92 1006.47 1006.07 1005.86 1005.93 1006.14 1006.63 1006.74 1006.91 1007.10 1007.13 1007.11 1007.02 1006.88 1006.49 1006.15 1005.92 1005.58 1005.35 1005.18 1005.13 1004.84 1005.42 1004.55 1005.00 1005.39 1004.91 1005.98 1006.90 1007.25 1007.85 1008.08 1008.69 1010.36 1012.44 1012.12 1012.50 1013.68 1014.71
1008.83 1008.54 1008.67 1008.39 1007.42 1006.92 1006.48 1005.99 1005.90 1005.95 1006.11 1006.39 1006.50 1006.49 1006.66 1006.88 1007.03 1006.91 1006.67 1006.28 1006.16 1006.06 1005.59 1005.25 1005.25 1005.08 1004.66 1004.35 1004.45 1004.40 1004.79 1005.25 1005.83 1006.73 1007.42 1007.76 1008.52 1008.23 1010.47 1012.57 1012.71 1012.33 1013.32 1014.62
1009.13 1008.63 1008.73 1008.33 1007.51 1006.94 1006.16 1006.14 1005.98 1005.95 1006.14 1006.27 1006.29 1006.25 1006.27 1006.42 1006.34 1006.55 1006.49 1006.29 1006.22 1006.11 1005.88 1005.73 1005.41 1004.97 1004.61 1004.56 1004.71 1004.75 1004.76 1004.85 1005.35 1006.24 1006.85 1007.91 1008.45 1007.45 1009.98 1011.98 1012.24 1012.09 1012.88 1013.48
1008.87 1008.43 1008.44 1008.11 1007.46 1007.33 1006.66 1006.15 1005.87 1005.87 1005.87 1005.83 1005.98 1005.99 1005.92 1006.06 1006.11 1006.13 1006.01 1006.14 1005.88 1005.78 1005.64 1005.46 1005.48 1005.26 1004.96 1004.85 1004.47 1004.33 1004.32 1004.72 1005.09 1005.79 1007.05 1007.69 1008.42 1008.63 1009.85 1011.59 1012.36 1012.78 1012.90 1013.79
Wind_Speed
3 5 5 7 6 4 4 4 3 5 2 1 7 6 11 16 13 13 12 12 11 13 9 11 14 14 10 11 11 12 11 8 6 3 3 2 3 2 2 2 4 4 2 2
6 4 8 5 7 5 2 1 4 8 4 2 5 6 4 11 19 20 18 13 15 11 8 9 11 13 14 15 14 12 14 9 9 7 3 3 3 2 2 2 3 3 2 4
7 5 5 5 5 4 3 4 4 6 7 3 5 9 4 4 4 6 11 14 15 17 15 9 13 15 12 14 15 14 14 12 11 7 6 3 3 2 2 2 2 3 4 4
4 2 6 3 3 6 2 6 6 3 3 4 3 7 6 4 9 4 10 14 18 17 13 12 13 13 15 16 12 12 10 11 10 10 8 6 5 4 3 3 3 2 3 4
8 6 5 4 6 6 10 6 7 4 4 3 3 4 11 4 9 5 12 18 17 18 16 15 16 17 17 13 13 12 10 9 8 11 9 7 4 3 2 2 4 3 3 4
6 2 5 9 4 8 2 5 6 5 4 2 5 5 9 6 7 9 3 10 14 12 12 12 13 13 13 10 10 10 11 10 8 10 8 9 8 6 4 3 4 3 3 3
5 3 2 4 4 2 7 8 4 4 4 7 2 3 12 5 9 12 10 13 8 8 9 9 14 14 12 12 13 10 10 10 8 10 9 10 8 7 7 5 4 4 3 2
5 6 6 6 8 8 4 10 8 6 5 6 3 5 9 7 10 8 7 6 8 10 12 14 17 16 15 14 12 13 12 11 12 10 8 7 8 5 4 4 3 3 4 5
5 6 4 2 3 8 4 3 5 9 4 3 3 9 8 4 4 5 4 6 10 8 7 7 7 11 12 12 15 17 14 10 11 12 8 6 6 7 6 6 5 1 3 2
5 2 2 2 4 5 6 7 4 3 3 2 6 6 7 5 6 8 8 8 9 4 6 6 8 10 12 13 14 13 13 15 12 11 9 8 7 5 7 6 6 7 7 4
7 4 5 3 3 8 1 1 7 7 4 7 1 8 7 7 8 10 12 8 4 5 5 6 7 10 9 11 12 14 14 14 11 13 10 10 11 8 11 9 7 8 9 10
5 6 2 3 3 1 2 5 7 7 4 1 3 9 6 8 7 8 9 5 5 7 5 5 3 7 9 10 11 14 13 14 7 8 11 7 9 13 11 9 9 9 7 8
8 0 3 9 7 3 2 2 6 6 4 5 6 8 5 8 9 5 6 6 5 3 1 3 5 7 8 8 9 11 11 7 11 13 12 13 13 12 9 10 10 9 13 12
9 4 7 7 7 1 4 2 4 5 5 6 7 6 9 12 9 11 12 9 5 3 4 6 5 6 7 8 9 8 8 12 18 15 8 11 12 12 11 11 11 10 12 14
4 4 0 1 3 2 1 3 7 3 5 4 3 6 6 7 8 8 9 10 13 8 5 6 6 6 7 8 8 10 13 16 17 10 14 10 8 7 10 12 11 9 11 12
3 2 1 4 6 3 6 5 7 5 3 4 3 2 2 5 4 6 8 12 13 13 13 2 4 7 8 8 8 10 12 13 14 17 20 19 12 10 11 13 13 12 10 11
4 6 4 2 4 4 4 2 2 1 2 1 2 2 4 4 4 4 7 9 8 10 10 11 7 3 6 4 5 9 15 14 15 17 16 18 16 14 11 13 14 14 13 13
5 5 3 3 3 1 6 4 3 3 1 3 2 4 4 5 5 5 3 6 8 8 11 12 9 7 5 2 6 7 9 13 15 17 18 15 15 14 13 13 14 12 12 11
3 6 4 5 3 4 5 4 6 6 5 6 4 2 4 5 1 2 3 5 5 3 6 4 6 4 4 3 3 8 8 9 12 14 13 13 14 14 13 13 13 12 11 9
5 7 6 3 4 7 9 4 5 4 3 8 7 6 3 1 2 5 6 6 8 8 7 7 3 6 4 1 7 8 8 10 11 13 15 15 15 16 16 15 15 12 11 12
3 4 5 3 4 7 6 4 5 5 10 6 7 3 2 1 4 4 8 9 5 6 8 8 8 2 1 3 6 8 9 12 11 10 11 12 13 15 15 15 10 11 11 10
5 6 4 3 2 3 6 5 7 7 1 4 3 3 3 5 5 5 8 8 8 7 10 7 7 11 9 4 9 8 12 7 8 9 9 7 5 6 7 12 12 12 13 11
1 5 4 8 7 3 4 2 1 3 3 4 5 4 4 4 4 6 6 6 6 8 5 5 5 9 10 10 4 6 4 9 9 6 7 8 13 8 4 6 11 11 11 10
2 2 1 2 2 3 3 4 1 2 2 4 2 2 2 3 4 6 6 7 5 5 7 6 5 6 6 5 6 6 8 7 10 10 9 11 13 18 9 6 7 10 10 9
5 3 1 4 5 6 5 3 3 1 3 1 3 3 4 4 8 4 6 8 5 4 2 4 6 6 6 1 0 3 5 9 11 10 10 8 7 13 13 8 8 9 8 10
3 5 3 6 6 3 6 5 3 4 3 5 4 5 4 3 7 4 9 5 5 2 3 4 2 0 0 2 5 5 7 8 12 11 8 8 8 9 6 7 6 13 9 14
Wind_Direction
18 93 169 196 171 139 133 158 255 261 259 30 218 253 196 192 193 195 191 192 199 213 207 207 204 196 185 179 179 186 187 188 156 153 154 172 199 190 180 175 148 152 221 246
35 178 214 134 141 121 112 319 288 292 272 163 133 253 238 175 206 197 191 195 206 203 194 195 199 190 186 187 188 186 196 179 184 186 153 151 149 161 119 151 142 154 234 222
147 231 144 159 152 140 156 195 197 248 332 261 13 315 306 230 247 208 210 203 202 206 206 194 191 193 182 189 189 190 192 183 185 160 126 94 83 81 122 167 184 207 227 218
195 208 156 131 205 124 298 201 207 220 67 269 54 278 292 314 282 227 195 199 206 202 202 198 195 193 191 200 193 186 187 183 180 158 161 158 178 166 196 160 161 177 200 165
243 168 156 155 202 145 228 167 198 194 172 73 322 82 271 2 304 251 199 211 207 201 199 190 191 197 199 189 187 185 181 191 175 178 178 174 164 167 131 114 119 153 137 137
212 271 164 198 160 178 125 116 58 55 80 58 247 149 277 248 237 294 221 209 208 188 201 190 195 195 195 186 173 176 176 193 180 177 174 174 179 165 136 135 148 165 121 125
330 245 237 138 112 97 80 58 354 356 3 218 27 98 242 267 264 245 210 213 179 166 187 173 178 187 180 183 180 173 179 193 184 184 178 178 183 168 171 166 158 153 139 153
154 327 176 178 174 172 170 151 157 201 203 249 52 229 253 256 275 279 241 182 162 189 200 198 189 189 184 184 183 175 185 190 181 174 183 180 170 166 158 162 146 191 174 150
140 277 287 196 109 126 168 183 171 103 10 45 259 292 306 327 317 322 219 172 211 216 194 194 177 193 183 183 184 190 185 191 192 182 154 167 161 158 162 135 147 173 32 104
190 357 284 316 110 43 147 156 81 15 136 230 298 285 246 294 266 261 268 230 235 184 178 175 183 193 189 192 192 183 181 194 189 168 157 161 148 125 113 113 107 103 119 118
152 123 276 160 175 165 101 47 51 111 108 152 191 274 216 225 221 223 244 240 240 209 205 194 200 191 187 187 183 188 188 192 186 163 162 133 141 132 128 152 162 117 141 149
191 130 245 213 96 236 152 173 133 122 232 66 144 272 341 307 305 259 267 283 271 207 218 208 201 173 178 187 184 192 195 201 167 110 113 127 140 145 171 141 154 117 106 122
185 314 30 352 358 6 55 159 108 109 95 189 133 264 320 356 340 300 283 307 309 327 332 221 200 199 186 185 192 189 192 145 120 121 150 180 171 177 158 137 111 137 135 123
90 98 151 177 214 184 339 117 122 106 112 168 224 298 320 332 335 334 328 321 106 147 226 243 218 211 218 198 185 150 148 140 128 136 150 191 185 181 143 127 134 147 134 135
104 115 176 150 277 243 181 77 153 125 154 140 206 202 280 297 305 305 314 341 359 24 180 241 234 215 223 228 184 148 160 159 165 157 179 202 201 162 147 133 137 134 135 143
25 126 71 5 12 36 80 43 74 63 137 113 170 261 240 303 358 10 16 19 23 4 16 232 280 267 229 207 193 154 159 165 156 150 162 204 187 170 150 141 138 141 143 143
73 123 87 257 10 8 15 302 275 133 184 132 163 251 351 329 14 21 10 22 6 7 4 359 3 306 287 232 180 173 161 163 154 160 180 172 172 164 151 145 148 154 155 153
114 84 83 177 42 169 245 294 196 127 313 206 233 236 237 253 289 296 359 6 0 355 357 6 360 350 4 188 162 150 161 162 161 162 171 169 165 152 150 150 155 155 157 154
46 117 86 129 144 279 316 190 152 166 249 191 208 249 249 307 39 340 4 328 296 334 306 313 16 21 350 106 151 140 164 167 160 169 169 163 158 151 152 158 161 157 148 146
61 64 113 127 147 188 233 192 154 114 295 196 187 218 164 334 79 261 316 325 313 320 265 348 64 14 24 208 151 158 162 171 183 175 171 170 160 158 168 168 165 154 157 150
29 21 152 160 201 284 246 173 138 115 235 177 183 216 328 81 202 259 315 311 335 313 318 330 324 313 207 229 191 173 168 199 187 175 167 174 171 161 161 159 147 145 141 138
179 147 203 106 107 260 159 104 160 214 141 124 133 188 255 254 275 277 290 296 310 308 298 267 297 310 303 253 210 207 198 168 162 169 169 182 141 131 149 145 145 144 137 137
327 186 193 172 215 259 287 286 22 167 122 140 157 173 211 263 297 306 299 292 289 294 278 283 243 242 244 225 191 204 227 155 138 152 143 132 119 111 111 175 150 137 140 142
285 152 192 31 273 271 296 304 243 168 107 131 162 200 201 260 276 305 303 297 321 318 317 320 296 249 251 218 206 194 160 150 138 146 167 152 155 130 160 196 180 146 144 145
214 13 30 289 292 304 280 246 291 236 168 214 268 251 268 297 299 264 286 299 320 290 331 329 319 319 330 325 353 160 162 159 148 154 154 167 178 145 151 172 182 158 157 159
193 184 147 230 230 184 261 289 293 247 244 237 238 283 270 251 271 275 282 271 252 278 328 341 328 332 65 131 131 157 157 160 149 149 157 141 137 121 120 140 95 45 114 131